| time (UTC) | temp F | wind direction | speed knots | gust knots | rain 1hr in | rain 24hr in | rain mn in | humidity % | barometer mb |
| 20260506111508 | 55 | 18 | 1.7 | 8.7 | 0.00 | 0.00 | 0.00 | 81 | 1009.7 |
| 20260506110006 | 55 | 1 | 1.7 | 7.8 | 0.00 | 0.00 | 0.00 | 80 | 1009.6 |
| 20260506104616 | 56 | 6 | 4.3 | 9.6 | 0.00 | 0.00 | 0.00 | 79 | 1009.3 |
| 20260506104501 | 56 | 49 | 4.3 | 9.6 | 0.00 | 0.00 | 0.00 | 80 | 1009.3 |
| 20260506103058 | 56 | 351 | 2.6 | 7.0 | 0.00 | 0.00 | 0.00 | 80 | 1009.2 |
| 20260506101602 | 56 | 11 | 1.7 | 7.8 | 0.00 | 0.00 | 0.00 | 80 | 1008.9 |
| 20260506100051 | 56 | 9 | 0.9 | 5.2 | 0.00 | 0.00 | 0.00 | 80 | 1008.7 |
| 20260506094556 | 56 | 360 | 1.7 | 7.0 | 0.00 | 0.00 | 0.00 | 79 | 1008.4 |
| 20260506093053 | 57 | 3 | 0.0 | 5.2 | 0.00 | 0.00 | 0.00 | 80 | 1008.3 |
| 20260506091545 | 57 | 360 | 1.7 | 6.1 | 0.00 | 0.00 | 0.00 | 81 | 1008.2 |
| 20260506090044 | 57 | 1 | 1.7 | 6.1 | 0.00 | 0.00 | 0.00 | 80 | 1008.0 |
| 20260506084544 | 57 | 12 | 2.6 | 7.8 | 0.00 | 0.00 | 0.00 | 80 | 1007.9 |
| 20260506083041 | 57 | 359 | 2.6 | 7.8 | 0.00 | 0.00 | 0.00 | 80 | 1007.8 |
| 20260506081538 | 58 | 1 | 1.7 | 6.1 | 0.00 | 0.00 | 0.00 | 81 | 1007.8 |
| 20260506073035 | 58 | 22 | 0.9 | 3.5 | 0.00 | 0.00 | 0.00 | 81 | 1007.2 |
| 20260506071530 | 59 | 8 | 2.6 | 8.7 | 0.00 | 0.00 | 0.00 | 81 | 1007.3 |
| 20260506061523 | 60 | 353 | 2.6 | 9.6 | 0.00 | 0.00 | 0.00 | 82 | 1007.4 |
| 20260506044512 | 62 | 11 | 1.7 | 7.8 | 0.00 | 0.00 | 0.00 | 81 | 1007.2 |
| 20260506043010 | 62 | 359 | 0.9 | 5.2 | 0.00 | 0.00 | 0.00 | 81 | 1007.3 |
| 20260506041517 | 63 | 337 | 0.9 | 7.0 | 0.00 | 0.00 | 0.00 | 81 | 1007.1 |
| 20260506040004 | 64 | 7 | 0.9 | 6.1 | 0.00 | 0.00 | 0.00 | 81 | 1007.0 |
| 20260506034501 | 64 | 8 | 0.9 | 7.8 | 0.00 | 0.00 | 0.00 | 81 | 1006.4 |
| 20260506033112 | 65 | 343 | 4.3 | 8.7 | 0.00 | 0.00 | 0.00 | 80 | 1006.3 |
| 20260506031558 | 66 | 349 | 1.7 | 5.2 | 0.00 | 0.00 | 0.00 | 80 | 1006.1 |
| 20260506030051 | 67 | 360 | 3.5 | 7.8 | 0.00 | 0.00 | 0.00 | 79 | 1005.9 |
| 20260506024548 | 68 | 338 | 0.9 | 6.1 | 0.00 | 0.00 | 0.00 | 79 | 1005.7 |
| 20260506023045 | 68 | 355 | 1.7 | 7.0 | 0.00 | 0.00 | 0.00 | 79 | 1005.3 |
| 20260506021541 | 68 | 360 | 0.9 | 3.5 | 0.00 | 0.00 | 0.00 | 78 | 1004.6 |
| 20260506020039 | 69 | 359 | 0.9 | 3.5 | 0.00 | 0.00 | 0.00 | 77 | 1004.6 |
| 20260506014545 | 69 | 345 | 0.0 | 2.6 | 0.00 | 0.00 | 0.00 | 75 | 1003.9 |
| 20260506013037 | 70 | 352 | 0.9 | 4.3 | 0.00 | 0.00 | 0.00 | 75 | 1004.0 |
| 20260506011539 | 71 | 39 | 1.7 | 7.0 | 0.00 | 0.00 | 0.00 | 75 | 1004.0 |
| 20260506010030 | 72 | 360 | 1.7 | 6.1 | 0.00 | 0.00 | 0.00 | 73 | 1003.4 |
| 20260506004537 | 72 | 302 | 0.9 | 7.0 | 0.00 | 0.00 | 0.00 | 72 | 1003.3 |
| 20260506003027 | 73 | 18 | 0.9 | 6.1 | 0.00 | 0.00 | 0.00 | 72 | 1002.9 |
| 20260506001526 | 74 | 342 | 1.7 | 4.3 | 0.00 | 0.00 | 0.00 | 70 | 1002.3 |
| 20260506000034 | 76 | 314 | 1.7 | 7.0 | 0.00 | 0.00 | 0.00 | 69 | 1002.6 |
| 20260505234524 | 78 | 328 | 1.7 | 7.0 | 0.00 | 0.00 | 0.00 | 68 | 1002.3 |
| 20260505233023 | 79 | 307 | 1.7 | 8.7 | 0.00 | 0.00 | 0.00 | 67 | 1002.0 |
| 20260505231523 | 81 | 355 | 0.9 | 7.8 | 0.00 | 0.00 | 0.00 | 67 | 1001.8 |
| 20260505230022 | 82 | 356 | 1.7 | 5.2 | 0.00 | 0.00 | 0.00 | 65 | 1001.8 |
| 20260505224533 | 84 | 111 | 0.9 | 5.2 | 0.00 | 0.00 | 0.00 | 61 | 1001.3 |
| 20260505223028 | 85 | 323 | 0.0 | 5.2 | 0.00 | 0.00 | 0.00 | 60 | 1001.3 |
| 20260505221521 | 86 | 215 | 1.7 | 5.2 | 0.00 | 0.00 | 0.00 | 55 | 1001.0 |
| 20260505220033 | 87 | 331 | 0.9 | 4.3 | 0.00 | 0.00 | 0.00 | 55 | 1000.8 |
| 20260505214532 | 88 | 1 | 1.7 | 6.1 | 0.00 | 0.00 | 0.00 | 53 | 1001.0 |
| 20260505213023 | 90 | 244 | 3.5 | 7.0 | 0.00 | 0.00 | 0.00 | 54 | 1000.8 |
| 20260505211515 | 90 | 261 | 3.5 | 7.8 | 0.00 | 0.00 | 0.00 | 56 | 1000.9 |
| 20260505210011 | 89 | 264 | 2.6 | 7.8 | 0.00 | 0.00 | 0.00 | 57 | 1001.1 |
| 20260505204516 | 89 | 245 | 2.6 | 8.7 | 0.00 | 0.00 | 0.00 | 59 | 1001.2 |
| 20260505203009 | 89 | 269 | 3.5 | 7.0 | 0.00 | 0.00 | 0.00 | 60 | 1001.4 |
| 20260505201505 | 88 | 329 | 2.6 | 11.3 | 0.00 | 0.00 | 0.00 | 61 | 1001.6 |
| 20260505194600 | 86 | 267 | 4.3 | 8.7 | 0.00 | 0.00 | 0.00 | 67 | 1001.7 |
| 20260505193056 | 86 | 252 | 4.3 | 8.7 | 0.00 | 0.00 | 0.00 | 68 | 1002.0 |
| 20260505191558 | 85 | 221 | 4.3 | 11.3 | 0.00 | 0.00 | 0.00 | 68 | 1001.8 |
| 20260505190107 | 84 | 216 | 5.2 | 10.4 | 0.00 | 0.00 | 0.00 | 69 | 1001.8 |
| 20260505184600 | 83 | 220 | 3.5 | 8.7 | 0.00 | 0.00 | 0.00 | 74 | 1001.8 |
| 20260505183051 | 82 | 193 | 4.3 | 11.3 | 0.00 | 0.00 | 0.00 | 72 | 1002.1 |
| 20260505181546 | 82 | 239 | 6.1 | 12.2 | 0.00 | 0.00 | 0.00 | 72 | 1001.9 |
| 20260505180049 | 82 | 240 | 4.3 | 9.6 | 0.00 | 0.00 | 0.00 | 74 | 1002.1 |
| 20260505174543 | 82 | 20 | 4.3 | 9.6 | 0.00 | 0.00 | 0.00 | 73 | 1002.0 |
| 20260505173042 | 81 | 174 | 5.2 | 12.2 | 0.00 | 0.00 | 0.00 | 73 | 1002.0 |
| 20260505171541 | 80 | 186 | 5.2 | 12.2 | 0.00 | 0.00 | 0.00 | 75 | 1002.0 |
| 20260505170034 | 80 | 198 | 5.2 | 13.0 | 0.00 | 0.00 | 0.00 | 76 | 1002.2 |
| 20260505164536 | 79 | 170 | 3.5 | 10.4 | 0.00 | 0.00 | 0.00 | 77 | 1002.1 |
| 20260505163031 | 79 | 252 | 3.5 | 10.4 | 0.00 | 0.00 | 0.00 | 78 | 1002.0 |
| 20260505161526 | 78 | 203 | 3.5 | 12.2 | 0.00 | 0.00 | 0.00 | 80 | 1001.9 |
| 20260505153027 | 76 | 213 | 4.3 | 10.4 | 0.00 | 0.00 | 0.00 | 81 | 1002.0 |
| 20260505151518 | 76 | 162 | 4.3 | 12.2 | 0.00 | 0.00 | 0.00 | 82 | 1001.8 |
| 20260505124508 | 71 | 199 | 4.3 | 10.4 | 0.00 | 0.00 | 0.00 | 89 | 1001.3 |
| 20260505123006 | 71 | 231 | 3.5 | 11.3 | 0.00 | 0.00 | 0.00 | 89 | 1001.2 |
| 20260505121507 | 70 | 175 | 3.5 | 11.3 | 0.00 | 0.00 | 0.00 | 89 | 1000.9 |
| 20260505120004 | 71 | 192 | 3.5 | 9.6 | 0.00 | 0.00 | 0.00 | 89 | 1000.9 |
| 20260505114504 | 71 | 237 | 3.5 | 9.6 | 0.00 | 0.00 | 0.00 | 89 | 1000.9 |
| 20260505113006 | 71 | 164 | 4.3 | 12.2 | 0.00 | 0.00 | 0.00 | 89 | 1000.7 |